• In Uzbekistan
  • List of Countries
  • For 7 days
  • Water Temperature
  • Satellite Maps
  • Weather Map
  • Weather Widgets
  • user-avatar
    Login

    Hourly Weather Sarikamis

    Today, 19 October, Thursday

    Time Temperature Precipitation Wind Pressure Humidity
    00:00 +3°C° 0 mm 1 mps 586 mmHg 72%
    01:00 +2°C° 0 mm 1 mps 585 mmHg 73%
    02:00 +2°C° 0 mm 1 mps 585 mmHg 74%
    03:00 +1°C° 0 mm 1 mps 585 mmHg 73%
    04:00 +1°C° 0 mm 1 mps 585 mmHg 75%
    05:00 +1°C° 0 mm 1 mps 584 mmHg 76%
    06:00 0°C° 0 mm 1 mps 584 mmHg 77%
    07:00 +2°C° 0 mm 1 mps 585 mmHg 68%
    08:00 +4°C° 0 mm 1 mps 586 mmHg 58%
    09:00 +6°C° 0 mm 1 mps 587 mmHg 49%
    10:00 +8°C° 0 mm 1 mps 588 mmHg 44%
    11:00 +9°C° 0 mm 1 mps 588 mmHg 39%
    12:00 +11°C° 0 mm 1 mps 589 mmHg 33%
    13:00 +11°C° 0 mm 1 mps 589 mmHg 31%
    14:00 +12°C° 0 mm 1 mps 589 mmHg 30%
    15:00 +12°C° 0 mm 1 mps 588 mmHg 28%
    16:00 +10°C° 0 mm 1 mps 588 mmHg 32%
    17:00 +9°C° 0 mm 1 mps 587 mmHg 36%
    18:00 +7°C° 0 mm 1 mps 586 mmHg 40%
    19:00 +6°C° 0 mm 1 mps 586 mmHg 42%
    20:00 +5°C° 0 mm 0 mps 586 mmHg 45%
    21:00 +4°C° 0 mm 0 mps 585 mmHg 47%
    22:00 +3°C° 0 mm 0 mps 585 mmHg 49%
    23:00 +3°C° 0 mm 0 mps 585 mmHg 50%

    Tomorrow, 20 October, Friday

    Time Temperature Precipitation Wind Pressure Humidity
    00:00 +2°C° 0 mm 0 mps 584 mmHg 52%
    01:00 +2°C° 0 mm 0 mps 584 mmHg 53%
    02:00 +2°C° 0 mm 0 mps 584 mmHg 54%
    03:00 +1°C° 0 mm 0 mps 584 mmHg 55%
    04:00 +1°C° 0 mm 0 mps 583 mmHg 56%
    05:00 +1°C° 0 mm 0 mps 583 mmHg 58%
    06:00 0°C° 0 mm 0 mps 583 mmHg 59%
    07:00 +4°C° 0 mm 1 mps 584 mmHg 51%
    08:00 +6°C° 0 mm 1 mps 586 mmHg 44%
    09:00 +8°C° 0 mm 1 mps 587 mmHg 37%
    10:00 +9°C° 0 mm 1 mps 587 mmHg 33%
    11:00 +11°C° 0 mm 1 mps 588 mmHg 30%
    12:00 +12°C° 0 mm 1 mps 588 mmHg 27%
    13:00 +12°C° 0 mm 1 mps 588 mmHg 26%
    14:00 +13°C° 0 mm 1 mps 588 mmHg 24%
    15:00 +13°C° 0 mm 2 mps 588 mmHg 23%
    16:00 +11°C° 0 mm 1 mps 587 mmHg 27%
    17:00 +10°C° 0 mm 1 mps 586 mmHg 31%
    18:00 +8°C° 0 mm 1 mps 586 mmHg 36%
    19:00 +7°C° 0 mm 1 mps 585 mmHg 39%
    20:00 +6°C° 0 mm 1 mps 585 mmHg 42%
    21:00 +5°C° 0 mm 1 mps 585 mmHg 45%
    22:00 +4°C° 0 mm 0 mps 585 mmHg 47%
    23:00 +3°C° 0 mm 0 mps 584 mmHg 50%

    Day after tomorrow, 21 October, Saturday

    Time Temperature Precipitation Wind Pressure Humidity
    00:00 +3°C° 0 mm 0 mps 584 mmHg 52%
    01:00 +2°C° 0 mm 0 mps 584 mmHg 53%
    02:00 +2°C° 0 mm 0 mps 583 mmHg 54%
    03:00 +1°C° 0 mm 0 mps 583 mmHg 56%
    04:00 +1°C° 0 mm 0 mps 583 mmHg 57%
    05:00 +1°C° 0 mm 0 mps 583 mmHg 58%
    06:00 0°C° 0 mm 0 mps 582 mmHg 59%
    07:00 +3°C° 0 mm 0 mps 583 mmHg 51%
    08:00 +5°C° 0 mm 0 mps 585 mmHg 44%
    09:00 +7°C° 0 mm 0 mps 586 mmHg 36%
    10:00 +9°C° 0 mm 1 mps 586 mmHg 33%
    11:00 +11°C° 0 mm 1 mps 586 mmHg 30%
    12:00 +12°C° 0 mm 2 mps 587 mmHg 27%
    13:00 +12°C° 0 mm 2 mps 586 mmHg 26%
    14:00 +13°C° 0 mm 2 mps 586 mmHg 26%
    15:00 +13°C° 0 mm 2 mps 586 mmHg 25%
    16:00 +10°C° 0 mm 2 mps 585 mmHg 29%
    17:00 +8°C° 0 mm 2 mps 585 mmHg 34%
    18:00 +8°C° 0 mm 1 mps 584 mmHg 38%
    19:00 +7°C° 0 mm 1 mps 584 mmHg 41%
    20:00 +6°C° 0 mm 1 mps 583 mmHg 45%
    21:00 +5°C° 0 mm 1 mps 583 mmHg 48%
    22:00 +4°C° 0 mm 1 mps 583 mmHg 51%
    23:00 +4°C° 0 mm 1 mps 582 mmHg 54%

    22 October, Sunday

    Time Temperature Precipitation Wind Pressure Humidity
    00:00 +3°C° 0 mm 1 mps 582 mmHg 56%
    01:00 +2°C° 0 mm 0 mps 582 mmHg 58%
    02:00 +1°C° 0 mm 0 mps 582 mmHg 60%
    03:00 +1°C° 0 mm 0 mps 581 mmHg 62%
    04:00 +1°C° 0 mm 0 mps 581 mmHg 63%
    05:00 0°C° 0 mm 0 mps 581 mmHg 64%
    06:00 0°C° 0 mm 0 mps 581 mmHg 65%
    07:00 +3°C° 0 mm 1 mps 582 mmHg 58%
    08:00 +5°C° 0 mm 1 mps 583 mmHg 50%
    09:00 +7°C° 0 mm 1 mps 584 mmHg 43%
    10:00 +7°C° 0 mm 2 mps 584 mmHg 40%
    11:00 +9°C° 0 mm 2 mps 585 mmHg 37%
    12:00 +10°C° 0 mm 3 mps 585 mmHg 33%
    13:00 +10°C° 0 mm 3 mps 585 mmHg 32%
    14:00 +11°C° 0 mm 3 mps 585 mmHg 31%
    15:00 +11°C° 0 mm 4 mps 584 mmHg 30%
    16:00 +9°C° 0 mm 3 mps 584 mmHg 35%
    17:00 +8°C° 0 mm 2 mps 583 mmHg 39%
    18:00 +6°C° 0 mm 2 mps 583 mmHg 43%
    19:00 +5°C° 0 mm 2 mps 582 mmHg 47%
    20:00 +5°C° 0 mm 1 mps 582 mmHg 50%
    21:00 +4°C° 0 mm 1 mps 582 mmHg 54%
    22:00 +4°C° 0 mm 1 mps 582 mmHg 56%
    23:00 +3°C° 0 mm 1 mps 582 mmHg 58%

    23 October, Monday

    Time Temperature Precipitation Wind Pressure Humidity
    00:00 +2°C° 0 mm 1 mps 581 mmHg 61%
    01:00 +2°C° 0 mm 1 mps 581 mmHg 62%
    02:00 +2°C° 0 mm 1 mps 581 mmHg 63%
    03:00 +1°C° 0 mm 1 mps 581 mmHg 65%
    04:00 +1°C° 0 mm 1 mps 581 mmHg 66%
    05:00 0°C° 0 mm 1 mps 581 mmHg 68%
    06:00 -1°C° 0 mm 0 mps 581 mmHg 69%
    07:00 +2°C° 0 mm 1 mps 582 mmHg 62%
    08:00 +4°C° 0 mm 1 mps 583 mmHg 54%
    09:00 +6°C° 0 mm 1 mps 584 mmHg 47%
    10:00 +8°C° 0 mm 1 mps 584 mmHg 42%
    11:00 +8°C° 0 mm 2 mps 585 mmHg 37%
    12:00 +10°C° 0 mm 2 mps 585 mmHg 32%
    13:00 +10°C° 0 mm 2 mps 585 mmHg 29%
    14:00 +12°C° 0 mm 2 mps 585 mmHg 27%
    15:00 +12°C° 0 mm 2 mps 585 mmHg 25%
    16:00 +10°C° 0 mm 2 mps 584 mmHg 28%
    17:00 +8°C° 0 mm 2 mps 584 mmHg 31%
    18:00 +7°C° 0 mm 1 mps 583 mmHg 34%
    19:00 +6°C° 0 mm 1 mps 583 mmHg 36%
    20:00 +6°C° 0 mm 1 mps 583 mmHg 38%
    21:00 +5°C° 0 mm 1 mps 583 mmHg 40%
    22:00 +4°C° 0 mm 1 mps 583 mmHg 41%
    23:00 +4°C° 0 mm 1 mps 582 mmHg 43%

    24 October, Tuesday

    Time Temperature Precipitation Wind Pressure Humidity
    00:00 +3°C° 0 mm 1 mps 582 mmHg 44%
    01:00 +3°C° 0 mm 1 mps 582 mmHg 46%
    02:00 +2°C° 0 mm 1 mps 582 mmHg 48%
    03:00 +2°C° 0 mm 1 mps 581 mmHg 50%
    04:00 +2°C° 0 mm 1 mps 581 mmHg 52%
    05:00 +2°C° 0 mm 1 mps 581 mmHg 53%
    06:00 +1°C° 0 mm 1 mps 581 mmHg 54%
    07:00 +3°C° 0 mm 1 mps 583 mmHg 47%
    08:00 +6°C° 0 mm 1 mps 584 mmHg 41%
    09:00 +7°C° 0 mm 2 mps 585 mmHg 35%
    10:00 +8°C° 0 mm 2 mps 586 mmHg 31%
    11:00 +10°C° 0 mm 3 mps 586 mmHg 28%
    12:00 +12°C° 0 mm 3 mps 587 mmHg 24%
    13:00 +12°C° 0 mm 3 mps 587 mmHg 23%
    14:00 +12°C° 0 mm 3 mps 587 mmHg 23%
    15:00 +13°C° 0 mm 3 mps 587 mmHg 22%
    16:00 +11°C° 0 mm 3 mps 586 mmHg 26%
    17:00 +9°C° 0 mm 2 mps 586 mmHg 30%
    18:00 +8°C° 0 mm 1 mps 585 mmHg 34%
    19:00 +7°C° 0 mm 1 mps 585 mmHg 35%
    20:00 +7°C° 0 mm 1 mps 585 mmHg 37%
    21:00 +6°C° 0 mm 1 mps 585 mmHg 39%
    22:00 +5°C° 0 mm 1 mps 585 mmHg 41%
    23:00 +5°C° 0 mm 1 mps 585 mmHg 42%
    Show more